User: anonymous   Login
Location: Ajisawe
(8.4333°N, 4.3833°E)
Time: 03:14:22
(UTC+00:00)
Language:

ATLAS 2A CENTAUR R/B - Orbit

View from above orbital plane
View from above orbital plane
View from above satellite
View from above satellite

Ground track
Ground track

The orbit data is extracted from the following two-line orbital elements,

1 25968U 99063B   20221.31060542 +.00007916 +00000-0 +50008-3 0  9994
2 25968 026.8108 218.6917 5222796 185.7274 164.5680 05.31881688307095
Epoch (UTC): 08 August 2020 07:27:16
Eccentricity: 0.5222796
inclination: 26.8108°
perigee height: 244 km
apogee height: 14725 km
right ascension of ascending node: 218.6917°
argument of perigee: 185.7274°
revolutions per day: 5.31881688
mean anomaly at epoch: 164.5680°
orbit number at epoch: 30709

The dashed part of the orbit path shows where the satellite is in the earth's shadow,  

DLR